RADUGA 32

Satellite information

Favourite Embed

Satellite Type and Status

PAYLOADIN ORBIT

Key statistics

Satellite RADUGA 32 at a glance.

Uptime

11268

Days in orbit

Revolutions

≈ 1.0

Per day

Orbit

OTHER

Other

Inclination

14.4

Latest

Satellite identification and parameters

Extended collection of information and parameters for RADUGA 32.

Object identification

Identified? True

Debris? False

Object name: RADUGA 32

International designator: 1994-087A

Object number (NORAD): 23448

Object ID (CCSDS): 23448

Country: COMMONWEALTH OF INDEPENDENT STATES (CIS)

Current information (Y/N): Y

RCS size: LARGE

Orbital parameters

Period: 1435.917 minutes

Inclination: 14.3696 deg

SMA: 42161.205 km

Apoapsis: 35822.101 km

Periapsis: 35744.038 km

RAAN: 352.6787 deg

Eccentricy: 0.00092578

Argument of periapsis: 253.1248 deg

Mean anomaly: 276.3981 deg

Mean motion: 1.00284369 rev/day

Mean motion (dot): -0.00000109 rev/day2

B* drag term: 0.0 1/REarth

Two-line elements (TLE)

Creation date: Nov. 2, 2025, 5:34 p.m.

Reference frame: TEME

Reference center: EARTH

Epoch: Nov. 2, 2025, 3 a.m. UTC

TLE line 0: 0 RADUGA 32

TLE line 1: 1 23448U 94087A 25306.12502647 -.00000109 00000-0 00000-0 0 9993

TLE line 2: 2 23448 14.3696 352.6787 0009258 253.1248 276.3981 1.00284369130608

Live tracking on map

Real-time ground track for satellite RADUGA 32.

In-orbit conjunctions

A list of the most updated potential collisions computed for object RADUGA 32.

Target Orbit TCA Probability of collision Miss distance Type
ELEKTRO (GOMS) OTHER 2025-06-05 21:36:28 TBA 4086.0 (m) PAYLOAD
EKRAN 3 OTHER 2025-04-27 06:16:14 TBA 1149.0 (m) PAYLOAD

Associated space launch

Geostationary communications satellite for military and governmental puposes

RADUGA 32 was lifted into orbit during the mission ‘Proton | Raduga 32’, on board a Proton space rocket.

The launch took place on Dec. 28, 1994, 11:31 a.m. from 81/23 (81L).

For more information about the launch, click the button.

Launch to space Proton | Raduga 32
Proton | Raduga 32

Agency: N/A

Status: Launch Successful

Launch date: Dec. 28, 1994, 11:31 a.m. UTC

Rocket: Proton

Launch pad: 81/23 (81L)

Location: Baikonur Cosmodrome, Republic of Kazakhstan

...

Latest news about this satellite

There are no fresh news available about this satellite. Check back as we update our databases every day.


Newsletter sign-up

Weekly statistics, charts and insights to help you stay on top of the space industry.